Regional Weather Roundup
Issued by NWS Little Rock, AR

Home | Current Version | Previous Version | Graphics & Text | Print | Product List | Glossary On
Versions: 1 2 3 4 5 6 7 8 9 10 11 12 13 14 15 16 17 18 19 20 21 22 23 24 25 26 27 28 29 30 31 32 33 34 35 36 37 38 39 40 41 42 43 44 45 46 47 48 49 50
000
ASUS44 KLZK 251405
RWRLZK

WEATHER ROUNDUP FOR ARKANSAS
NATIONAL WEATHER SERVICE LITTLE ROCK AR
800 AM CST SAT FEB 25 2017

NOTE: "FAIR" INDICATES FEW OR NO CLOUDS BELOW 12,000 FEET WITH NO
SIGNIFICANT WEATHER AND/OR OBSTRUCTIONS TO VISIBILITY.

ARZ001-003-010-029-251500-
NORTHWEST ARKANSAS

CITY           SKY/WX    TMP DP  RH WIND       PRES   REMARKS
FAYETTEVILLE   SUNNY     25  19  78 W6        30.17R WCI  18
FORT SMITH     SUNNY     32  17  54 NW7       30.21R WCI  26
HARRISON       SUNNY     25  17  72 NW13G21   30.11R WCI  14
BENTONVILLE    SUNNY     25  18  74 NW8       30.17R WCI  16
ROGERS         SUNNY     24  18  77 NW8       30.16R WCI  15
SILOAM SPGS    SUNNY     25  18  74 W6        30.18R WCI  18
HIGHFILL       SUNNY     25  19  78 NW9       30.16R WCI  15
SPRINGDALE     SUNNY     25  18  74 W6        30.18R WCI  18
$$

ARZ004-005-016-251500-
NORTH CENTRAL ARKANSAS

CITY           SKY/WX    TMP DP  RH WIND       PRES   REMARKS
BATESVILLE     SUNNY     32  18  55 NW10G23   30.12R WCI  24
FLIPPIN        SUNNY     28  14  54 NW9G16    30.12R WCI  20
MTN HOME       SUNNY     27  16  63 N9        30.11R WCI  18
$$

ARZ040-041-251500-
WEST CENTRAL ARKANSAS

CITY           SKY/WX    TMP DP  RH WIND       PRES   REMARKS
MENA           SUNNY     34  23  64 NW9       30.15R WCI  26
MOUNT IDA      SUNNY     33  20  58 NW10G18   30.13R WCI  25
$$

ARZ009-017-025-026-028-251500-
NORTHEAST ARKANSAS

CITY           SKY/WX    TMP DP  RH WIND       PRES   REMARKS
CORNING        FAIR      32  18  55 NW15G22   30.12R WCI  22
JONESBORO      SUNNY     34  21  59 NW9G20    30.10R WCI  27
NEWPORT        SUNNY     33  19  56 NW18      30.12R WCI  22
WALNUT RIDGE   SUNNY     34  18  51 NW17      30.10R WCI  23
BLYTHEVILLE    SUNNY     34  23  64 NW13G23   30.09R WCI  25
$$

ARZ022-023-033-042-044-251500-
CENTRAL ARKANSAS

CITY           SKY/WX    TMP DP  RH WIND       PRES   REMARKS
LITTLE ROCK    SUNNY     35  23  61 NW14      30.15R WCI  26
N LITTLE ROCK    N/A     34  24  66 N6        30.15R WCI  29
JACKSONVILLE   SUNNY     35  21  57 NW9       30.13R WCI  28
SEARCY         SUNNY     34  18  52 NW14      30.15R WCI  25
HOT SPRINGS    SUNNY     36  22  56 NW3       30.14R
RUSSELLVILLE   SUNNY     34  20  56 W9        30.15R WCI  27
CLINTON        FAIR      32  16  51 NW9G16    30.14R WCI  24
$$

ARZ036-251500-
EAST ARKANSAS

CITY           SKY/WX    TMP DP  RH WIND       PRES   REMARKS
WEST MEMPHIS   SUNNY     35  23  61 NW10G20   30.10R WCI  27
$$

ARZ050-053-066-070-073-251500-
SOUTHWEST ARKANSAS

CITY           SKY/WX    TMP DP  RH WIND       PRES   REMARKS
ARKADELPHIA    FAIR      36  25  64 SW6       30.18R
CAMDEN         SUNNY     37  23  56 N6        30.19R
TEXARKANA      SUNNY     36  22  56 N8        30.18R
EL DORADO      SUNNY     37  25  61 NW10      30.17R
DE QUEEN       SUNNY     33  26  75 W3        30.17R
$$

ARZ056-057-069-251500-
SOUTHEAST ARKANSAS

CITY           SKY/WX    TMP DP  RH WIND       PRES   REMARKS
PINE BLUFF     SUNNY     37  24  59 N12G21    30.15R
STUTTGART      SUNNY     36  18  48 NW13      30.15R
MONTICELLO     SUNNY     38  25  59 NW8       30.14R

$$





USA.gov is the U.S. government's official web portal to all federal, state and local government web resources and services.